Wind_Speed
39 40 40 37 37 38 39 41 42 42 43 44 45 47 48 48 47 44 43 45 45 46 48 48 49 51 54 55 56 58 59 60 61 62 63 65 67 69 70 71 72 72 73 74 74 74 74 74 73 74 74 74 74 74 74 73 73 74 74 74 74 73 73 73 72 70 69 71 73 71 68 69 71 73 74 74 76 78 77 77 77 76 75 73 72 70 69 68
38 40 41 37 36 38 38 39 40 42 43 45 48 49 50 49 48 47 46 46 47 48 46 45 46 48 51 53 54 55 56 57 57 57 58 59 61 62 63 64 65 66 67 68 69 69 70 70 70 70 71 71 72 72 71 71 72 71 72 72 72 70 69 70 69 66 66 69 72 72 70 71 71 73 74 74 76 78 77 77 76 75 73 70 69 68 68 68
37 39 41 36 35 37 37 37 38 40 42 46 48 48 49 49 49 49 50 49 49 47 44 43 44 43 45 47 50 52 53 53 53 53 54 55 57 58 59 59 60 61 63 64 65 66 66 66 67 67 68 68 69 70 68 69 70 69 69 69 68 67 66 67 66 64 65 68 71 72 73 73 73 73 74 74 76 77 75 74 74 72 71 70 68 67 66 68
36 39 41 36 34 37 36 36 37 39 42 46 48 47 48 48 49 50 49 49 48 46 43 42 42 40 40 42 44 47 50 50 50 51 51 52 54 54 55 56 57 59 60 61 62 63 63 63 64 65 65 66 66 67 66 65 66 66 65 64 65 64 64 66 65 65 67 70 72 73 74 75 76 75 74 73 74 74 72 71 70 70 70 70 69 67 65 65
36 40 41 36 34 36 35 35 36 38 42 45 47 46 47 47 48 49 48 48 47 46 44 42 41 41 40 41 41 43 45 47 48 49 50 50 51 52 53 54 55 56 57 58 59 59 59 60 61 61 62 61 61 62 62 61 61 63 63 62 63 63 64 66 67 68 70 72 74 75 75 76 75 74 72 71 70 70 70 69 69 69 69 70 70 68 67 65
36 41 41 35 34 35 34 35 35 37 40 43 46 46 46 46 47 47 48 48 46 45 44 42 41 41 41 40 39 41 43 44 45 47 48 49 49 50 50 51 52 54 54 54 55 55 55 56 57 57 57 56 56 57 58 59 60 62 63 62 63 64 66 69 70 71 73 73 74 75 74 73 72 71 70 69 68 68 69 69 69 69 69 69 69 69 68 66
37 42 40 35 34 34 34 33 33 35 38 42 45 45 45 45 47 47 47 47 46 44 42 42 41 41 42 39 39 41 42 43 44 45 47 47 47 48 48 48 49 50 51 51 51 52 53 54 55 56 55 55 56 57 58 60 60 62 64 65 66 67 68 70 72 73 73 73 73 73 72 70 68 69 69 68 68 68 68 69 69 69 69 69 69 68 67 66
38 41 39 35 33 33 32 32 32 34 38 41 42 43 44 44 46 47 47 46 45 43 41 41 41 42 41 39 39 40 41 42 42 43 44 45 45 45 46 46 47 48 49 49 50 51 53 54 55 56 56 57 58 59 60 62 62 64 66 68 69 70 70 70 71 71 70 71 71 71 71 68 67 68 69 69 68 68 68 69 69 70 70 69 68 67 66 66
39 40 38 35 32 31 31 31 32 34 35 37 38 40 41 42 44 45 45 44 43 42 41 41 41 41 40 39 39 38 39 41 40 40 41 41 41 42 43 44 45 46 47 48 49 50 52 53 53 54 56 57 59 60 62 63 64 65 67 69 70 70 70 69 68 68 68 69 70 71 70 68 68 68 69 69 68 68 69 69 70 70 69 68 67 66 66 66
38 38 37 34 31 30 30 30 31 31 31 33 35 37 38 39 41 41 42 41 41 41 41 41 39 39 38 38 37 36 38 38 37 36 36 36 37 38 39 41 42 43 45 47 48 49 51 53 53 55 57 58 60 61 63 64 65 66 67 69 69 69 69 68 67 66 66 67 68 71 72 70 69 68 69 69 68 69 70 70 70 69 68 67 67 67 67 67
37 36 36 32 29 29 29 29 29 28 28 31 33 34 36 37 37 38 38 39 39 39 39 37 36 36 36 36 35 34 36 36 35 34 33 33 35 36 38 40 42 44 46 48 49 50 52 54 56 57 59 60 62 64 65 67 67 67 67 68 67 67 67 67 66 65 65 66 68 72 73 71 69 69 69 68 68 70 70 70 70 69 68 68 67 67 68 67
35 35 34 31 29 29 29 28 27 26 28 30 32 32 34 34 34 34 35 36 36 36 35 34 33 33 32 31 31 31 31 31 32 33 34 36 38 39 41 43 45 46 48 50 52 53 55 58 59 61 62 64 65 67 68 67 67 66 65 65 66 66 66 65 65 64 65 67 69 72 74 72 70 70 70 68 68 69 70 70 70 70 69 69 69 69 68 68
34 34 33 30 29 29 28 27 26 27 29 31 31 30 31 31 31 32 33 33 33 32 32 31 32 31 29 28 28 28 29 30 32 34 36 38 41 42 44 46 48 49 51 53 56 57 59 61 62 64 65 65 66 67 66 64 63 63 63 63 64 64 64 64 65 65 66 67 69 72 75 74 72 70 70 69 69 69 69 70 70 70 70 71 71 71 70 70
33 34 31 29 29 29 27 26 26 28 29 29 28 28 28 29 30 31 30 30 30 30 30 30 30 28 27 28 29 30 31 33 35 37 39 41 43 44 47 48 50 52 54 56 58 59 60 62 62 63 63 62 62 63 63 62 60 61 61 61 61 62 64 65 66 66 66 68 69 71 74 75 75 72 71 70 70 70 70 71 71 71 71 72 73 73 72 72
33 33 30 28 29 28 27 27 27 28 27 26 26 27 27 27 27 27 27 27 27 27 28 28 28 26 26 28 31 33 35 37 38 40 41 43 45 47 49 51 53 54 56 57 58 59 60 60 60 60 60 59 59 60 61 60 59 59 60 60 60 61 63 65 67 68 68 69 71 72 74 75 75 73 72 71 71 72 73 73 73 73 73 73 74 74 73 73
33 31 28 28 29 28 27 27 26 26 25 25 25 24 23 21 21 21 22 23 24 24 25 24 24 24 24 27 30 33 36 38 39 41 42 44 46 47 49 51 53 54 55 56 58 59 59 59 58 58 58 58 57 58 59 59 58 58 59 61 62 62 63 66 68 68 68 70 73 75 76 76 74 72 71 71 72 74 75 75 75 75 75 76 76 75 75 75
31 28 27 29 29 28 28 27 26 25 23 22 22 21 20 19 18 19 20 22 22 22 22 21 22 23 25 27 30 32 35 38 40 41 43 45 47 48 50 52 53 54 56 58 59 59 58 58 58 57 56 56 56 57 59 60 59 59 59 61 64 65 66 68 68 68 68 71 73 75 77 78 76 72 71 72 74 75 77 77 77 78 78 79 79 78 78 78
28 26 28 29 28 28 28 27 26 24 22 22 23 23 22 21 20 20 20 20 20 21 22 23 25 27 29 31 33 35 37 39 41 43 44 46 48 50 52 53 55 56 58 58 59 58 58 58 57 56 55 55 56 58 60 60 60 61 61 62 65 67 69 70 70 69 70 71 73 74 76 78 77 74 73 74 76 78 79 79 80 80 81 81 81 82 82 82
26 27 30 29 28 28 28 27 25 22 23 24 25 25 23 19 18 17 19 21 22 24 26 28 30 32 33 35 37 38 40 42 43 44 46 48 50 52 53 55 56 57 57 57 58 57 56 56 56 56 57 56 57 58 60 62 63 64 64 65 66 67 69 72 71 71 71 71 71 73 76 78 77 75 75 76 78 80 82 82 83 83 83 84 84 85 86 86
27 30 30 29 29 28 27 26 24 23 25 26 26 25 20 16 16 18 21 25 27 29 30 32 33 35 36 38 39 40 42 44 45 47 49 51 53 54 55 56 56 56 56 55 56 55 54 55 56 58 59 59 59 60 61 63 66 67 68 68 69 69 70 72 73 72 72 71 71 73 76 78 77 76 77 78 80 81 83 84 84 85 86 87 88 89 89 89
30 31 30 29 28 28 27 26 25 25 27 28 27 24 18 17 21 25 27 28 30 32 33 34 36 38 39 40 42 43 45 46 48 50 52 53 54 54 54 55 55 54 54 52 52 54 55 57 58 59 60 61 63 63 64 65 68 69 69 70 71 72 72 72 73 73 72 71 71 75 79 79 78 79 80 81 82 83 83 84 86 87 88 89 90 91 92 92
31 30 29 29 29 28 27 26 26 27 29 30 27 22 18 21 26 29 31 32 33 35 36 38 39 41 42 43 44 46 47 49 50 51 52 52 53 53 53 52 51 50 50 50 51 54 56 58 61 62 63 64 66 66 67 69 70 70 71 71 72 73 73 72 72 72 72 72 73 77 81 81 80 82 83 84 84 84 84 85 87 88 90 91 92 93 94 94
31 30 30 29 29 28 26 26 26 28 30 30 27 23 22 26 29 31 33 35 37 39 39 40 42 43 44 45 46 47 48 48 49 50 50 50 51 50 49 48 47 48 49 51 53 56 59 60 62 64 65 67 68 69 70 71 73 74 74 74 74 74 73 72 72 73 73 74 76 79 83 83 83 84 85 85 85 85 86 87 88 89 91 93 94 94 95 96
30 30 30 30 29 27 26 26 27 29 31 30 27 25 26 30 32 34 36 37 39 40 41 42 43 44 44 45 45 46 46 47 48 49 49 48 47 46 46 45 47 49 51 53 56 59 61 63 64 66 67 69 70 72 73 74 75 76 76 76 75 74 74 74 74 74 74 77 80 82 85 86 87 87 86 86 86 87 87 88 90 92 93 95 96 97 98 99
30 30 29 29 28 27 27 27 29 31 31 29 27 26 28 30 33 34 36 37 39 40 41 42 41 41 42 42 44 45 45 47 46 46 46 45 44 44 45 47 49 52 55 56 59 61 62 64 66 68 69 71 72 73 74 75 76 76 76 75 75 75 76 77 78 78 77 78 81 85 89 90 89 88 87 88 88 88 89 91 93 95 96 97 98 100 101 102
29 29 29 29 29 29 29 29 29 30 29 28 27 27 29 31 34 35 36 37 39 40 40 40 39 40 41 42 44 44 44 44 44 44 44 44 45 46 48 51 53 55 57 58 60 62 64 66 68 70 72 73 74 75 75 75 75 75 75 76 77 77 79 80 82 82 82 81 81 86 92 92 91 90 90 90 91 91 92 94 96 98 99 100 101 102 103 104
28 28 29 29 29 29 29 29 30 29 28 28 28 29 31 33 34 36 37 38 39 38 38 38 39 40 41 43 44 43 43 43 43 44 45 46 48 50 51 53 55 57 58 60 62 64 67 69 71 72 74 74 75 75 74 74 74 75 76 78 79 81 82 84 85 86 87 85 84 89 94 94 94 93 93 93 94 94 95 97 99 100 101 102 103 104 104 105
28 28 29 29 29 29 30 30 30 29 28 29 30 32 33 34 34 36 36 36 37 37 37 38 40 41 42 43 44 44 44 45 45 46 48 49 51 52 53 55 56 58 60 62 64 67 69 71 73 73 74 74 74 74 75 75 76 77 79 80 82 84 85 86 88 89 90 89 88 91 95 97 98 98 97 97 97 97 98 99 100 100 101 102 104 105 105 106
28 28 28 29 29 30 31 31 31 30 30 31 32 33 34 33 34 35 36 37 38 38 39 40 41 43 44 45 45 45 46 47 48 49 51 53 54 55 56 58 59 61 63 65 67 69 71 72 73 73 73 73 74 75 77 78 79 80 82 82 84 86 87 88 90 91 92 92 93 95 96 98 100 99 99 100 100 100 101 101 101 102 102 103 104 105 106 106
29 29 29 28 29 31 32 33 33 33 32 31 30 31 31 32 34 36 38 39 40 41 42 43 44 45 46 46 47 47 48 49 51 53 55 56 57 58 60 61 63 64 66 68 69 71 72 72 72 73 73 75 76 78 80 81 82 84 84 85 86 88 90 91 92 94 94 94 96 98 99 101 102 100 101 102 103 103 103 103 103 104 104 104 104 105 105 106
30 30 30 30 31 32 34 34 34 33 30 28 28 30 31 34 36 38 40 41 42 44 44 45 46 47 48 48 49 50 51 53 55 57 58 59 60 61 63 64 66 67 68 69 70 70 71 72 73 74 75 77 79 81 83 84 85 86 87 87 88 89 91 93 94 96 96 97 98 100 102 104 105 103 103 104 105 105 105 105 105 105 105 105 105 105 106 106
30 31 31 31 32 32 32 32 31 30 29 29 31 32 34 36 38 40 42 44 45 46 46 47 48 49 49 49 50 52 54 55 57 58 60 62 63 64 65 67 68 69 69 70 70 71 72 74 76 77 78 80 81 83 85 86 87 88 89 90 91 91 92 93 95 97 98 98 98 100 103 104 105 104 105 105 106 106 107 107 107 107 107 107 107 107 107 107
30 31 31 31 31 31 30 29 29 30 31 33 34 36 37 39 40 42 44 45 46 47 47 48 49 49 50 51 52 54 56 57 58 60 62 64 65 66 67 68 68 68 68 69 70 72 74 77 78 79 81 82 82 84 86 88 89 90 91 92 94 95 94 94 95 96 97 96 96 98 101 103 103 103 103 104 105 106 107 108 109 109 109 110 110 109 109 109
29 30 30 31 31 30 30 29 30 31 32 34 36 38 39 41 42 44 45 46 47 48 49 49 50 51 52 53 55 56 57 58 60 62 63 65 66 67 67 68 68 68 68 69 71 73 75 78 80 81 82 83 84 85 87 89 90 91 92 94 95 96 97 96 95 96 96 95 93 95 98 100 101 102 102 103 104 105 106 107 108 108 109 110 110 110 110 110
27 28 29 29 30 30 30 31 31 31 33 35 37 39 40 41 42 43 44 46 47 49 50 51 51 53 54 55 56 57 58 60 62 64 64 64 65 66 66 67 68 69 70 71 73 74 76 79 81 83 84 85 86 87 88 90 91 92 93 94 96 97 98 99 99 99 100 98 95 95 97 99 101 102 102 103 104 105 105 105 106 107 108 109 109 110 110 110
24 25 27 28 28 29 31 32 33 33 35 36 38 39 41 41 42 43 45 47 49 50 51 52 53 54 56 57 57 59 60 61 63 64 64 64 64 64 65 67 69 71 72 74 75 75 78 81 83 85 87 88 88 89 89 90 91 92 93 94 96 98 99 101 101 100 102 102 98 96 98 99 100 101 102 103 104 104 105 105 106 106 107 108 108 109 109 110
22 23 25 26 27 29 31 33 34 35 36 37 39 40 41 42 43 45 47 48 49 51 52 53 54 55 56 58 59 60 62 61 61 62 62 63 64 65 67 68 70 72 74 75 76 77 78 81 84 87 88 89 89 90 90 90 90 91 92 93 94 96 98 100 101 101 102 102 99 96 97 98 99 102 102 103 104 104 104 106 107 107 107 108 108 109 109 109
21 23 24 26 28 30 31 33 34 35 37 38 40 41 42 44 45 46 48 49 50 50 51 53 54 55 57 59 60 60 60 60 60 60 61 63 65 67 68 69 71 73 75 77 78 79 79 81 84 86 88 89 89 90 90 90 90 90 91 92 93 95 96 97 100 101 102 101 99 96 95 95 97 102 105 106 106 105 106 106 107 107 107 107 108 108 108 108
21 22 24 26 28 30 31 32 34 36 37 39 40 41 43 44 46 47 48 48 49 50 52 53 55 56 57 57 58 58 58 59 59 61 62 64 66 68 70 71 72 74 76 79 80 82 82 81 83 85 87 88 89 89 90 90 90 90 91 92 94 96 97 96 97 99 101 102 100 98 96 93 95 101 104 106 106 107 107 107 106 106 106 107 107 106 106 107
21 23 25 27 28 29 31 32 34 36 37 39 40 41 43 44 45 46 46 48 49 51 52 53 54 55 55 55 55 56 57 59 60 62 64 65 67 69 71 73 75 77 79 81 82 83 83 83 83 85 87 88 89 90 90 91 91 91 91 92 93 94 95 96 94 96 99 101 102 102 98 94 95 100 103 104 106 107 106 105 104 104 105 105 104 104 104 104
22 24 26 27 28 30 31 33 35 36 38 39 40 41 42 43 44 45 46 48 49 51 51 52 52 52 52 53 54 56 58 60 62 63 65 67 69 71 73 75 78 79 81 82 83 84 84 84 84 84 86 87 89 90 91 91 91 91 91 91 92 92 93 95 94 94 96 98 101 104 101 96 97 101 102 103 105 105 104 103 103 103 103 103 103 103 103 102
23 24 26 28 29 30 32 33 35 36 37 38 39 40 41 42 44 45 47 48 49 49 49 49 49 50 51 53 55 57 59 61 63 65 67 68 71 73 75 77 79 81 82 82 83 84 84 83 83 84 86 87 88 89 90 90 90 90 90 90 91 92 93 96 97 96 96 96 99 102 101 99 99 101 102 103 104 104 103 103 103 103 102 102 101 101 100 100
24 25 27 28 29 31 32 33 35 36 37 38 39 40 41 43 44 45 46 46 46 46 47 47 49 50 52 54 56 58 60 63 65 67 69 71 73 75 77 79 80 81 82 82 83 84 84 84 83 84 85 87 89 89 89 88 88 89 89 89 90 91 93 96 98 99 98 97 98 100 100 99 100 102 103 104 103 103 103 103 103 102 101 101 101 100 98 97
24 26 27 28 29 30 32 33 35 36 37 38 39 40 41 42 43 43 43 44 44 45 46 48 50 52 54 56 58 60 62 64 66 69 71 74 76 78 79 80 81 82 82 82 83 84 85 86 85 85 85 85 86 87 86 84 84 85 87 88 88 89 92 95 97 99 99 98 98 101 101 99 99 100 102 102 102 101 102 102 103 102 101 100 100 98 97 96
25 26 27 29 30 31 33 34 35 36 37 38 38 39 40 40 41 41 42 43 44 45 47 49 51 53 55 58 60 62 64 66 68 71 73 76 77 79 80 81 81 82 82 83 84 85 86 87 87 87 86 85 84 84 83 82 81 82 85 87 88 89 92 95 97 99 100 99 98 100 101 98 96 98 100 99 99 98 98 99 99 99 99 98 97 95 94 93
26 27 28 30 31 32 33 34 35 36 36 37 37 37 38 38 39 40 42 43 45 47 49 51 53 55 57 60 62 64 66 68 71 73 75 77 78 79 81 81 82 82 83 84 84 85 86 87 88 87 87 87 86 84 84 84 83 84 85 88 90 91 93 96 98 100 101 101 98 99 100 97 94 96 97 95 95 94 94 94 95 95 95 94 93 91 90 90
27 28 29 30 31 32 33 34 34 35 35 36 36 36 37 38 40 41 43 44 46 49 51 53 55 58 60 62 64 67 69 71 73 75 76 78 78 80 81 81 82 83 84 85 86 86 86 86 86 85 85 87 86 85 84 85 85 86 88 90 91 93 95 97 99 101 102 102 100 98 97 96 95 95 94 92 92 91 90 91 92 92 92 91 89 87 86 86
28 29 30 30 31 32 33 33 33 34 35 35 35 37 38 39 41 42 44 46 48 51 53 55 58 60 62 64 67 69 71 73 75 76 77 78 79 80 81 82 83 85 85 86 87 87 86 85 84 82 82 84 85 84 84 85 86 87 90 92 93 95 97 98 100 102 103 103 101 98 95 94 95 95 92 91 92 91 90 90 90 90 89 87 85 84 83 83
28 29 30 30 31 31 32 32 33 34 34 35 36 38 39 40 42 44 46 48 50 53 55 57 60 62 64 67 69 71 73 75 76 77 78 80 81 81 82 83 84 85 86 86 86 86 85 83 82 80 79 82 84 83 83 84 85 87 90 93 95 97 98 100 101 103 103 102 100 97 95 94 95 94 92 91 91 90 89 89 89 89 87 84 83 82 82 81
28 29 29 30 30 30 31 32 33 34 35 36 38 39 40 41 43 45 48 50 52 55 57 60 62 65 67 69 71 73 75 76 77 78 79 81 82 82 83 84 85 86 86 86 85 84 83 82 82 79 78 79 82 81 82 84 85 87 90 93 96 97 98 99 101 102 102 100 98 96 94 92 92 92 91 90 89 88 88 88 89 88 87 84 83 82 81 79
28 29 29 29 30 31 31 32 33 34 36 37 39 40 41 43 45 47 50 52 55 57 60 62 65 67 69 71 73 74 76 77 78 79 80 81 82 84 84 85 86 86 86 85 85 84 84 83 83 81 78 78 81 81 81 83 85 87 90 93 95 96 96 97 99 101 100 98 95 94 93 91 89 89 88 87 86 86 86 87 88 87 85 84 83 81 80 78
29 29 29 29 30 31 32 33 34 36 37 38 39 41 43 45 47 49 52 54 57 59 62 64 67 69 71 73 75 76 77 78 79 80 81 82 83 85 86 86 87 86 85 85 85 85 85 84 84 83 80 79 80 81 82 84 86 87 90 93 93 93 93 93 96 99 100 97 94 93 91 90 88 86 84 83 82 83 84 85 85 84 81 80 80 79 76 74
Wind_Direction
223 231 235 229 230 230 230 230 228 226 224 222 221 219 224 229 232 235 236 235 234 236 239 240 239 239 239 239 240 240 241 242 243 243 244 246 247 248 250 251 253 254 256 257 258 259 260 262 263 265 266 268 269 270 272 273 273 274 275 275 275 276 277 277 278 278 279 279 279 278 278 278 279 281 282 283 284 285 285 286 286 286 286 287 288 288 288 287
220 227 234 229 228 231 229 230 228 226 224 223 223 222 225 228 230 232 233 235 235 237 238 241 241 241 241 240 241 242 242 244 245 245 246 247 248 250 251 252 254 255 257 258 259 260 261 263 264 265 267 268 270 271 272 273 273 274 274 275 276 277 277 277 278 278 277 277 278 279 279 278 279 280 282 283 283 284 285 286 286 286 287 287 287 287 287 287
217 223 232 229 227 231 230 229 228 226 224 224 226 226 228 230 231 234 236 237 240 243 242 244 247 246 245 243 243 243 244 245 246 247 248 248 250 251 252 254 255 256 257 258 259 260 262 263 264 266 267 268 270 271 272 273 273 274 274 275 276 276 276 276 276 276 276 276 277 279 280 280 280 281 282 283 283 283 284 285 286 286 287 286 286 286 287 288
214 220 229 228 227 230 230 229 228 226 224 225 228 228 229 231 232 235 238 240 243 247 246 247 249 249 247 246 245 245 246 246 247 248 249 249 251 252 253 255 256 257 257 258 259 261 262 263 264 266 267 269 271 272 272 273 274 274 274 274 274 275 275 275 276 276 276 277 278 279 280 281 282 282 283 283 283 284 284 285 285 286 286 287 287 287 286 286
212 219 228 227 226 229 229 229 227 226 225 226 228 229 230 232 233 235 238 241 243 245 246 247 248 249 247 246 246 247 246 246 247 248 249 250 251 252 253 254 255 256 257 258 260 261 263 264 265 267 269 270 271 272 273 272 272 272 273 273 274 274 274 275 276 276 277 278 279 280 281 281 282 283 283 283 283 284 284 285 285 285 286 287 287 287 285 284
211 219 227 226 226 229 229 230 228 226 226 227 228 229 230 231 232 234 237 239 241 243 245 246 247 248 248 247 246 247 247 246 247 249 249 250 252 253 254 255 255 256 257 259 261 263 264 266 267 269 270 271 270 270 270 271 271 271 272 272 273 274 275 277 278 278 279 280 280 281 281 282 283 283 282 282 283 284 285 285 286 286 286 286 286 286 285 285
211 220 225 225 226 228 229 229 229 228 227 227 228 229 229 230 232 234 236 238 240 242 243 245 246 247 248 248 247 247 248 247 248 249 250 251 252 254 254 255 256 257 258 260 261 263 264 265 268 269 269 268 267 267 268 269 270 271 272 273 273 275 276 279 280 281 282 282 281 281 281 282 282 283 283 283 284 284 285 286 286 286 285 285 285 286 286 287
212 220 223 225 226 228 229 230 230 229 229 228 228 229 230 231 232 234 236 238 241 242 243 244 245 247 249 249 248 248 249 249 249 250 252 253 254 255 255 255 256 257 258 260 261 263 264 266 267 268 267 266 265 266 267 268 269 271 273 275 276 278 279 280 281 282 282 282 282 281 281 282 282 282 283 284 284 285 286 286 285 285 285 285 286 287 287 287
214 218 222 225 227 228 229 230 231 231 231 231 231 231 232 232 232 233 235 237 239 241 241 242 243 245 247 248 249 249 250 251 250 251 253 254 255 256 256 256 257 258 259 261 262 263 264 265 265 265 265 265 266 267 268 269 271 272 274 276 278 280 281 281 281 281 281 281 281 281 281 282 282 283 283 284 285 286 286 285 284 284 285 286 287 287 287 288
214 217 221 225 226 229 230 231 232 233 233 232 232 232 232 232 233 234 234 234 236 237 239 240 241 242 245 248 250 250 250 251 251 252 254 257 258 258 259 259 259 260 260 260 261 261 262 262 263 264 265 265 267 268 269 271 273 275 277 278 280 280 281 280 281 281 281 281 281 281 281 282 282 283 284 285 286 286 285 285 285 286 286 287 287 287 287 287
213 216 221 224 226 228 230 231 233 234 232 230 231 231 232 232 233 233 232 232 234 235 238 239 240 241 244 247 249 249 248 249 250 250 251 252 254 255 256 257 257 257 258 258 258 259 261 262 264 265 266 267 269 270 272 274 275 277 278 279 279 280 280 280 281 281 280 281 281 281 282 282 283 284 284 285 286 285 285 285 286 286 286 286 286 286 287 287
211 215 220 222 225 228 229 231 232 230 228 227 228 229 230 230 231 230 230 231 232 234 236 237 238 240 243 246 248 247 247 248 248 248 247 248 250 251 252 253 254 255 256 257 259 260 262 264 266 267 269 270 272 273 274 275 277 278 278 278 279 279 279 280 280 280 281 281 282 283 283 283 284 285 285 285 286 285 285 286 286 286 287 286 286 286 286 286
209 214 218 221 224 227 228 229 229 225 223 224 225 226 228 228 228 227 228 229 230 233 235 237 239 241 242 243 244 245 246 246 247 248 249 250 251 252 253 254 255 256 258 260 262 263 265 267 269 270 271 272 273 275 276 276 277 278 278 278 279 279 280 280 280 280 281 282 283 284 285 285 285 285 286 286 286 285 285 285 285 286 286 287 287 286 286 285
208 213 216 219 222 225 226 226 225 222 222 223 223 223 223 224 224 225 227 228 229 232 234 237 241 243 242 239 238 240 242 245 247 249 250 251 252 253 255 255 257 258 260 263 265 266 268 270 272 273 273 274 275 276 276 277 277 278 278 279 280 281 282 282 282 282 283 284 284 285 286 287 287 287 287 287 286 285 285 284 285 285 285 286 286 286 286 285
207 212 214 216 219 222 222 223 222 221 221 220 219 219 221 222 222 224 226 227 230 234 237 240 244 245 243 238 236 236 240 244 247 250 252 254 255 256 258 258 260 261 263 265 267 269 272 273 274 274 275 275 276 276 277 278 279 280 280 280 281 282 283 284 285 285 286 287 286 286 286 286 286 287 287 287 286 286 285 285 285 286 286 286 285 285 285 284
206 210 211 213 217 219 220 222 221 218 216 216 217 218 218 219 219 221 223 224 226 228 230 234 239 241 241 239 239 239 243 247 250 253 254 256 257 259 260 261 263 265 266 268 270 273 275 275 275 276 277 277 278 279 280 280 281 281 282 283 283 283 284 284 285 287 288 288 288 288 287 286 286 286 286 287 287 286 286 286 286 287 287 286 285 284 284 283
205 206 207 211 214 216 218 218 217 214 211 211 211 208 206 206 209 213 216 218 221 223 227 232 239 244 245 246 246 246 248 251 252 255 256 258 259 260 262 263 265 267 269 271 273 275 276 276 277 278 279 280 282 283 283 283 283 283 283 284 285 285 285 285 285 287 288 288 288 288 288 287 287 287 287 287 287 286 286 287 287 287 287 286 286 285 285 284
201 201 204 209 212 213 215 215 213 210 204 201 199 198 199 202 207 215 220 225 230 235 240 243 244 245 246 246 247 248 249 251 253 255 258 259 261 263 265 267 268 269 271 273 275 276 277 279 280 281 281 282 283 284 284 284 284 284 284 285 285 286 287 287 287 288 288 288 288 287 287 287 287 288 289 288 288 287 287 287 288 287 287 286 286 286 285 285
195 198 203 208 209 212 213 212 209 204 199 197 197 200 203 209 218 225 231 235 237 238 237 238 239 240 242 244 246 249 251 254 256 258 260 262 264 266 268 269 270 272 273 274 276 277 279 281 282 283 283 283 284 284 284 285 285 285 285 285 285 285 286 287 288 288 288 287 287 286 285 285 287 288 288 287 287 287 288 288 288 288 287 287 286 285 285 285
192 198 203 205 208 210 211 209 203 199 198 199 203 205 206 215 227 228 228 230 231 231 231 233 236 239 242 246 249 252 255 257 260 262 264 266 267 269 270 271 273 274 275 277 278 280 281 283 283 284 284 285 284 284 284 285 286 286 287 287 286 286 287 287 288 288 287 286 286 285 284 285 286 287 286 286 286 286 287 287 288 287 287 287 286 286 286 286
193 198 202 204 205 207 207 204 198 197 200 203 206 205 205 214 222 223 225 228 230 232 234 237 240 244 247 250 254 256 259 261 263 266 267 268 269 270 272 275 276 277 278 280 282 284 284 285 284 285 286 286 285 285 285 285 285 286 286 287 287 288 288 288 288 288 287 287 287 286 285 285 286 286 286 285 285 286 286 287 287 287 287 286 286 286 286 286
195 198 200 201 203 205 204 200 198 199 202 206 208 206 210 218 220 224 229 232 235 237 239 242 245 249 252 255 258 260 262 264 266 267 268 271 273 275 276 277 279 280 281 283 284 284 284 284 285 286 286 286 286 287 287 286 286 286 286 286 287 287 287 287 287 287 287 287 287 286 286 286 286 286 285 285 286 286 286 286 286 286 286 285 285 285 285 286
195 197 198 200 202 203 202 199 199 200 204 210 212 210 214 221 223 228 233 237 241 244 246 248 251 254 257 260 262 264 266 267 269 271 273 276 277 278 279 280 281 283 284 284 284 284 284 284 285 286 286 287 287 287 287 287 288 288 288 288 288 288 287 287 287 287 287 288 287 286 286 286 286 285 285 286 286 286 286 286 285 285 284 284 284 284 284 284
195 196 197 200 202 201 199 198 199 201 207 212 215 217 219 223 225 229 234 239 244 248 251 254 256 259 261 263 265 267 270 272 274 277 278 279 279 280 282 283 284 284 283 283 283 283 284 285 285 286 286 287 287 288 288 288 289 289 289 289 289 289 289 288 288 288 288 289 288 288 287 286 285 285 286 286 286 286 286 285 285 284 284 283 284 284 284 284
195 197 198 201 200 198 198 198 199 204 211 215 218 223 228 231 232 233 237 242 247 250 254 257 260 263 265 267 269 272 275 278 280 281 281 282 283 285 285 284 283 283 283 283 284 284 285 285 286 286 286 286 287 288 288 288 289 289 289 290 290 290 290 290 289 289 288 288 288 288 287 286 286 286 287 286 286 286 285 285 284 284 284 283 284 283 283 283
195 197 199 202 200 199 201 202 204 209 215 220 222 226 232 236 239 242 244 248 252 255 257 260 264 267 269 272 275 277 279 281 283 284 285 286 286 285 284 283 283 283 284 285 286 286 286 286 286 287 287 288 288 289 289 289 289 290 290 291 291 291 291 291 290 290 289 289 289 288 287 286 287 287 287 286 286 286 285 284 284 284 284 284 283 283 283 283
196 198 201 203 202 201 204 208 212 215 219 223 223 225 230 235 241 245 247 251 256 259 261 264 268 271 274 277 279 281 282 284 287 288 287 286 285 285 284 284 285 286 286 287 287 287 287 288 288 288 289 289 289 290 290 290 291 292 292 292 293 293 292 292 292 292 291 291 290 289 288 288 289 288 288 287 287 286 286 285 285 284 284 284 284 283 283 282
196 199 202 203 202 203 207 213 219 222 223 225 226 228 232 236 241 245 249 255 260 263 266 269 272 275 279 281 283 285 286 288 290 289 288 287 287 287 287 287 288 288 289 289 289 289 289 289 289 290 290 291 291 292 292 292 293 293 293 293 293 293 293 293 292 292 292 292 291 289 289 290 290 290 289 289 288 287 286 286 285 285 285 284 284 283 283 282
196 200 202 203 202 204 209 216 222 227 228 228 230 231 234 239 246 252 257 262 265 269 272 274 277 280 282 284 286 287 288 289 290 290 290 290 290 290 290 290 290 290 290 290 291 291 291 291 292 292 293 293 293 293 294 294 294 294 294 294 294 293 293 293 292 292 292 292 292 290 290 290 290 290 290 290 289 289 288 287 287 286 286 285 284 284 283 283
197 199 201 202 204 207 213 219 225 230 233 234 235 237 240 246 253 257 260 263 267 272 275 276 280 282 284 285 286 287 288 289 290 291 291 291 292 292 292 292 292 292 292 292 292 292 293 293 293 293 294 294 295 295 295 295 295 295 295 295 294 294 294 294 293 293 293 293 293 293 292 292 291 292 292 291 291 290 290 289 288 287 287 286 285 284 284 284
198 199 201 203 207 211 217 222 228 233 238 241 243 245 248 252 254 255 258 262 267 272 275 278 280 282 283 284 285 287 288 289 291 291 292 293 293 293 293 293 292 293 293 293 293 294 294 294 294 295 295 296 296 296 296 296 296 295 295 295 295 294 294 294 294 294 294 294 294 294 293 293 293 293 293 292 292 291 291 290 289 288 287 286 286 285 284 284
200 202 205 208 212 217 223 226 231 235 238 240 242 245 247 250 252 254 257 262 267 271 274 277 280 281 283 284 286 287 288 289 291 291 292 293 293 293 293 293 294 294 295 295 295 295 296 296 296 296 296 296 296 296 296 296 296 296 296 296 296 295 294 294 294 294 293 293 293 293 293 292 293 293 293 293 293 293 292 291 290 289 288 288 287 286 285 284
205 207 210 214 218 223 228 231 233 234 235 238 241 244 246 250 253 255 259 264 268 271 275 278 280 282 283 284 286 287 289 290 291 292 293 293 293 293 294 294 294 295 295 296 296 296 296 297 297 297 297 296 296 296 296 296 297 297 297 297 296 296 295 294 293 292 292 292 292 292 292 292 293 292 292 292 292 291 291 290 290 289 289 289 288 287 287 286
210 212 214 218 223 228 232 235 237 237 239 241 244 247 250 253 256 259 263 267 270 273 277 279 280 282 284 286 287 289 290 291 292 292 292 292 293 293 294 294 294 295 295 295 295 296 296 296 296 297 297 297 297 297 297 297 297 298 297 297 296 296 295 295 294 293 292 292 292 292 292 292 292 292 292 291 290 290 289 289 289 289 289 288 288 287 287 287
216 216 219 223 227 231 235 239 242 243 245 247 249 252 255 258 261 265 268 271 274 277 279 280 281 283 285 288 289 290 292 292 292 292 292 292 293 293 294 294 295 295 296 296 297 297 298 297 298 298 298 298 299 299 299 298 298 298 298 298 298 298 297 297 297 297 296 295 295 294 293 293 293 293 293 292 291 290 290 290 289 289 288 288 287 287 287 287
221 221 224 227 230 233 237 241 245 247 250 253 255 259 262 265 268 271 273 276 278 279 281 282 283 286 288 290 291 292 292 292 292 293 293 294 294 294 295 296 296 297 298 298 298 298 299 299 299 299 299 300 300 300 299 299 299 300 300 299 299 299 299 298 298 297 297 296 297 296 295 295 294 294 293 292 291 291 291 291 290 289 289 289 289 288 288 288
227 228 231 233 235 237 240 244 248 252 256 259 262 266 269 271 274 276 277 278 279 280 281 283 286 288 289 291 291 292 292 292 292 293 294 295 295 296 296 297 298 298 298 298 298 299 299 299 300 300 300 301 301 301 301 300 300 300 300 299 299 298 298 297 297 297 296 296 297 297 296 296 296 295 294 293 293 292 292 292 291 290 290 290 289 288 288 287
234 235 237 240 242 244 247 250 253 257 261 264 267 269 272 274 276 277 278 278 280 282 284 286 288 289 290 290 291 292 292 293 293 294 295 296 297 297 298 298 299 299 299 299 300 300 301 301 301 301 301 301 301 301 301 300 300 300 299 299 299 298 298 298 298 298 297 297 297 297 297 297 297 296 295 295 294 294 293 292 292 291 291 290 289 288 287 286
240 241 243 245 248 250 253 256 258 261 264 266 269 271 273 274 275 276 278 280 283 285 287 288 289 289 290 291 291 292 293 294 295 296 297 298 299 299 300 300 300 300 301 301 301 302 302 303 303 302 302 302 302 301 301 301 302 302 302 301 301 300 299 299 298 298 298 298 299 298 298 299 298 296 295 295 295 294 293 293 293 293 292 291 290 289 288 288
245 247 249 251 254 257 259 261 263 265 267 269 270 272 273 275 277 279 282 284 286 287 287 288 289 290 290 291 292 293 295 296 298 299 299 300 301 301 301 302 302 302 303 303 303 304 304 304 304 304 303 304 304 304 304 304 304 304 303 302 301 300 300 299 299 299 299 299 300 299 300 300 299 297 296 296 295 294 294 294 294 293 292 291 291 290 290 289
249 251 254 256 259 261 263 264 266 267 269 270 272 274 276 279 281 283 285 285 286 286 287 288 289 291 292 293 295 296 298 299 300 301 301 302 303 303 303 303 303 304 304 304 305 305 305 306 305 305 305 305 305 305 305 305 305 304 303 302 301 301 300 300 299 299 299 300 300 300 301 302 300 298 297 297 296 296 296 296 296 295 294 294 293 292 291 291
253 254 256 259 261 262 264 265 267 268 270 273 275 278 280 283 284 284 284 285 286 287 288 290 291 293 294 296 298 299 300 301 302 303 303 304 304 304 304 304 304 305 305 306 306 306 306 306 307 307 307 307 306 306 305 305 305 304 304 303 303 303 302 301 301 301 301 301 301 301 302 303 302 301 301 300 299 299 300 299 297 297 296 295 294 293 293 292
254 256 258 261 263 264 266 268 270 272 275 278 280 281 282 283 283 283 284 285 287 289 291 292 294 296 297 299 300 301 303 304 305 305 305 305 305 305 305 306 306 306 307 307 307 307 307 308 308 308 308 308 307 307 307 307 307 306 305 305 304 304 303 303 303 302 303 303 303 303 304 304 304 304 303 302 302 302 301 300 299 298 298 297 296 295 295 295
257 259 262 265 267 269 270 272 275 277 279 280 281 281 282 282 283 284 286 288 290 292 294 295 297 298 300 301 303 304 306 306 306 306 306 306 306 306 307 307 308 308 308 309 309 310 310 310 310 310 309 308 308 307 307 307 306 305 305 304 304 304 303 303 303 303 304 305 306 306 306 305 306 305 304 303 303 303 302 301 300 300 299 298 298 297 297 297
264 266 268 271 272 274 275 277 278 279 279 280 281 282 282 283 285 288 290 291 293 294 296 298 300 301 303 305 306 307 307 307 307 307 307 307 308 308 309 309 309 310 310 311 311 312 312 312 311 311 310 309 308 307 307 306 305 304 304 304 304 305 305 305 306 306 307 308 308 307 306 307 308 307 305 304 304 303 302 301 301 300 299 298 298 298 298 298
270 271 273 274 275 276 277 278 279 279 281 282 282 283 285 287 289 291 292 294 295 297 299 301 303 305 307 308 308 308 308 308 308 308 308 309 309 310 310 311 311 312 312 313 313 313 313 313 312 312 312 311 310 310 309 308 308 307 306 307 307 308 308 308 309 309 309 308 309 308 308 309 309 306 304 305 304 303 302 302 301 300 299 298 298 299 299 298
273 274 275 276 276 277 278 279 280 282 282 284 285 286 288 290 291 293 294 296 298 300 302 304 306 308 309 309 309 309 309 309 309 309 310 310 311 311 312 313 313 314 314 314 314 314 314 314 313 314 313 312 311 311 311 310 310 310 310 310 310 310 310 310 310 311 310 310 310 310 310 311 309 307 306 307 305 304 304 302 301 300 299 299 299 300 299 298
275 276 277 278 279 280 281 282 282 283 284 286 287 288 290 292 293 295 297 299 301 303 305 307 309 310 310 309 310 310 310 310 311 311 312 312 313 313 314 315 315 315 316 316 315 315 314 314 314 314 314 312 312 313 313 312 312 313 312 312 312 311 312 312 313 313 312 311 311 311 312 312 310 309 309 309 307 307 306 304 302 301 300 300 301 300 299 298
278 279 280 281 281 282 283 284 285 286 286 287 288 290 292 294 296 298 300 302 303 306 308 309 310 310 310 310 311 311 311 312 312 313 314 314 315 315 316 316 316 316 316 316 315 315 314 314 314 315 315 314 313 314 314 314 314 314 313 313 313 313 314 315 314 313 312 311 312 313 314 313 312 311 311 310 309 308 307 305 304 302 302 303 303 302 301 301
282 283 283 283 283 284 285 285 286 286 287 289 291 293 295 296 298 300 302 304 306 308 309 310 310 310 311 311 312 312 312 313 314 315 315 316 316 316 317 317 317 317 316 315 315 315 315 315 315 316 316 315 314 315 315 315 315 314 314 314 314 314 315 315 314 313 312 313 314 315 315 314 313 312 312 311 310 309 308 307 306 305 305 306 305 304 303 303
285 285 284 284 284 285 285 285 286 288 289 292 294 295 297 299 300 302 304 306 308 309 310 310 310 311 312 312 313 313 314 315 316 316 316 317 317 317 318 318 317 317 317 317 317 317 317 317 317 317 318 317 315 315 316 315 315 315 314 314 314 314 315 315 315 314 313 314 315 316 315 314 313 312 312 312 312 311 310 309 307 307 308 308 307 306 305 304
286 285 285 285 285 286 286 287 289 291 293 295 296 298 299 301 302 304 306 307 308 309 310 310 311 312 313 313 314 314 315 316 317 317 317 318 318 318 318 318 318 318 318 319 319 320 319 319 319 318 319 318 316 316 316 315 315 315 314 313 314 315 316 317 316 315 314 315 317 316 315 315 314 313 313 313 313 312 311 309 308 308 308 307 306 306 305 304
Height
10609 10611 10613 10617 10619 10622 10625 10628 10631 10634 10638 10640 10643 10645 10644 10646 10650 10653 10656 10657 10659 10660 10661 10665 10668 10670 10672 10674 10676 10678 10679 10681 10683 10686 10689 10690 10691 10693 10694 10695 10696 10697 10697 10697 10697 10696 10696 10696 10695 10694 10693 10692 10691 10690 10690 10690 10688 10686 10684 10682 10680 10680 10678 10676 10675 10675 10672 10666 10664 10666 10668 10666 10662 10659 10658 10657 10652 10649 10649 10648 10648 10646 10645 10645 10643 10642 10640 10637
10606 10608 10610 10613 10616 10619 10622 10625 10628 10631 10635 10637 10639 10640 10641 10644 10647 10649 10651 10652 10654 10656 10659 10661 10664 10666 10668 10671 10672 10674 10676 10677 10679 10682 10684 10685 10686 10688 10689 10690 10691 10692 10692 10692 10691 10690 10690 10690 10689 10688 10687 10686 10685 10684 10684 10682 10681 10680 10678 10674 10674 10674 10671 10669 10669 10669 10666 10660 10656 10657 10659 10659 10657 10656 10653 10653 10647 10642 10643 10641 10639 10638 10637 10638 10637 10635 10632 10628
10603 10605 10606 10610 10614 10616 10619 10622 10625 10628 10632 10634 10636 10638 10640 10642 10644 10645 10647 10649 10650 10653 10658 10659 10661 10664 10666 10667 10668 10670 10671 10673 10675 10677 10679 10680 10681 10682 10684 10685 10686 10686 10686 10686 10685 10685 10684 10684 10684 10683 10682 10681 10679 10678 10679 10676 10673 10673 10672 10669 10668 10668 10665 10662 10663 10663 10659 10655 10652 10650 10649 10649 10649 10649 10648 10646 10640 10636 10638 10636 10633 10632 10629 10628 10629 10629 10627 10622
10600 10602 10604 10608 10611 10613 10616 10620 10623 10625 10629 10631 10633 10636 10638 10640 10642 10643 10644 10646 10648 10651 10655 10656 10658 10661 10662 10663 10665 10666 10667 10669 10671 10672 10674 10675 10676 10678 10679 10680 10681 10681 10680 10680 10679 10679 10679 10679 10678 10678 10677 10676 10674 10671 10672 10671 10668 10666 10665 10664 10662 10662 10659 10656 10657 10656 10652 10649 10647 10645 10643 10641 10640 10640 10640 10639 10633 10630 10631 10630 10627 10625 10622 10620 10620 10621 10621 10617
10597 10599 10601 10606 10609 10611 10614 10617 10620 10623 10626 10628 10630 10633 10636 10638 10640 10641 10643 10644 10646 10648 10651 10653 10655 10657 10658 10660 10662 10662 10663 10665 10667 10668 10670 10671 10672 10673 10674 10675 10675 10675 10674 10674 10674 10674 10674 10674 10673 10672 10671 10671 10669 10666 10665 10665 10663 10659 10659 10659 10657 10656 10653 10650 10651 10649 10646 10644 10640 10638 10636 10634 10633 10632 10632 10630 10628 10624 10624 10623 10621 10618 10616 10614 10611 10610 10610 10609
10594 10596 10599 10603 10606 10609 10612 10614 10618 10621 10624 10626 10628 10631 10634 10636 10638 10639 10641 10642 10644 10646 10648 10650 10652 10653 10655 10657 10658 10658 10659 10662 10663 10664 10665 10666 10667 10669 10669 10670 10670 10669 10669 10669 10670 10670 10669 10669 10668 10667 10666 10665 10664 10661 10660 10658 10657 10654 10653 10654 10651 10650 10648 10644 10643 10641 10639 10636 10633 10630 10628 10628 10626 10624 10623 10623 10621 10619 10617 10615 10613 10612 10609 10606 10603 10600 10598 10598
10591 10593 10596 10601 10604 10607 10609 10612 10615 10618 10621 10623 10625 10628 10631 10634 10635 10637 10638 10639 10641 10643 10645 10647 10649 10650 10651 10653 10655 10655 10656 10658 10659 10660 10661 10662 10663 10664 10665 10665 10665 10665 10665 10665 10666 10665 10664 10664 10663 10662 10660 10659 10658 10656 10654 10653 10652 10649 10646 10647 10646 10645 10643 10639 10635 10633 10631 10627 10624 10622 10620 10622 10621 10616 10615 10615 10615 10613 10611 10608 10606 10603 10600 10597 10595 10592 10590 10589
10587 10590 10595 10598 10602 10605 10607 10610 10613 10615 10617 10619 10622 10625 10628 10631 10633 10634 10635 10637 10639 10641 10643 10644 10646 10647 10649 10650 10651 10652 10653 10655 10656 10657 10657 10659 10660 10660 10661 10661 10661 10661 10661 10661 10661 10661 10659 10658 10657 10656 10654 10653 10652 10651 10649 10647 10646 10645 10641 10640 10638 10637 10636 10634 10629 10626 10623 10619 10616 10612 10612 10614 10614 10610 10608 10608 10608 10606 10604 10601 10597 10593 10591 10589 10587 10585 10583 10580
10585 10589 10593 10596 10600 10603 10606 10608 10610 10612 10614 10618 10621 10623 10626 10628 10630 10632 10633 10636 10637 10639 10640 10642 10644 10645 10646 10647 10648 10650 10650 10651 10653 10654 10654 10655 10656 10657 10657 10657 10657 10657 10657 10657 10656 10656 10654 10653 10652 10650 10649 10647 10646 10645 10643 10641 10641 10640 10638 10634 10632 10630 10628 10626 10623 10620 10616 10612 10608 10604 10605 10607 10606 10604 10602 10601 10601 10599 10595 10591 10587 10585 10584 10582 10580 10577 10575 10572
10583 10587 10591 10594 10598 10601 10603 10605 10607 10610 10613 10616 10619 10621 10623 10625 10627 10630 10632 10634 10635 10636 10637 10639 10641 10642 10643 10644 10646 10647 10647 10648 10650 10651 10651 10652 10653 10653 10653 10653 10653 10653 10653 10652 10651 10650 10648 10647 10646 10645 10643 10642 10641 10639 10637 10636 10635 10634 10632 10628 10626 10624 10620 10618 10616 10614 10610 10606 10602 10596 10596 10599 10599 10598 10596 10595 10595 10590 10585 10581 10578 10577 10576 10574 10571 10569 10567 10565
10581 10585 10589 10593 10596 10599 10601 10603 10606 10609 10612 10614 10616 10618 10620 10623 10625 10627 10629 10631 10632 10633 10635 10637 10639 10640 10641 10642 10643 10644 10645 10646 10647 10648 10649 10649 10650 10650 10650 10649 10649 10648 10647 10647 10646 10645 10643 10642 10641 10639 10638 10637 10635 10633 10632 10630 10629 10629 10627 10622 10620 10618 10613 10611 10609 10607 10604 10600 10595 10590 10588 10591 10593 10591 10589 10589 10587 10580 10576 10573 10571 10569 10567 10566 10563 10561 10559 10557
10580 10584 10588 10591 10595 10597 10599 10601 10604 10607 10609 10611 10613 10615 10618 10620 10623 10625 10626 10628 10630 10631 10633 10635 10636 10637 10639 10640 10641 10642 10642 10644 10645 10645 10646 10646 10646 10646 10646 10645 10644 10644 10643 10642 10641 10640 10639 10637 10636 10634 10632 10631 10629 10627 10626 10625 10623 10622 10621 10616 10613 10611 10608 10605 10603 10601 10598 10594 10589 10583 10579 10582 10585 10583 10581 10582 10578 10572 10568 10565 10562 10560 10558 10556 10554 10553 10551 10548
10578 10582 10586 10590 10593 10595 10597 10600 10603 10605 10607 10609 10611 10613 10616 10618 10620 10622 10624 10626 10628 10629 10631 10632 10634 10635 10637 10638 10639 10640 10641 10642 10642 10642 10643 10643 10643 10642 10642 10641 10640 10640 10638 10637 10636 10635 10634 10631 10630 10629 10627 10626 10623 10620 10619 10620 10618 10616 10614 10611 10606 10603 10601 10598 10596 10595 10592 10588 10584 10577 10570 10570 10574 10575 10573 10572 10568 10564 10561 10557 10554 10552 10550 10547 10544 10543 10541 10540
10577 10581 10585 10589 10591 10593 10596 10599 10601 10603 10605 10607 10609 10612 10614 10616 10618 10620 10622 10624 10626 10628 10629 10630 10632 10634 10635 10636 10637 10638 10638 10639 10639 10639 10639 10639 10639 10638 10637 10637 10636 10635 10634 10632 10630 10629 10628 10626 10625 10623 10621 10621 10618 10615 10613 10613 10613 10609 10607 10605 10601 10597 10594 10590 10587 10587 10585 10581 10577 10572 10565 10561 10561 10564 10565 10562 10558 10554 10551 10549 10546 10545 10543 10540 10536 10534 10531 10529
10576 10580 10584 10587 10589 10592 10594 10597 10599 10601 10604 10606 10608 10610 10612 10615 10617 10619 10621 10623 10625 10626 10628 10629 10630 10632 10633 10634 10634 10635 10635 10636 10636 10636 10636 10635 10635 10634 10633 10632 10631 10630 10628 10627 10625 10623 10622 10620 10619 10617 10615 10615 10613 10609 10607 10607 10607 10603 10599 10597 10595 10592 10588 10583 10579 10578 10577 10572 10567 10563 10559 10555 10553 10555 10554 10552 10549 10544 10541 10538 10537 10536 10534 10531 10528 10525 10522 10520
10575 10579 10583 10586 10588 10590 10593 10595 10598 10600 10603 10605 10607 10609 10612 10614 10616 10618 10620 10622 10623 10625 10626 10628 10629 10630 10631 10631 10631 10632 10632 10632 10632 10632 10632 10631 10630 10630 10629 10627 10626 10625 10623 10621 10619 10618 10616 10613 10613 10611 10610 10608 10606 10604 10600 10599 10599 10597 10593 10589 10587 10586 10583 10578 10574 10571 10570 10564 10558 10552 10547 10545 10546 10548 10546 10543 10540 10535 10530 10528 10527 10526 10523 10520 10518 10515 10513 10511
10574 10579 10582 10584 10587 10589 10591 10594 10596 10599 10602 10604 10606 10609 10611 10613 10615 10617 10618 10620 10621 10623 10624 10625 10626 10627 10628 10628 10629 10629 10629 10629 10629 10628 10628 10627 10626 10625 10624 10623 10621 10619 10617 10616 10614 10612 10610 10608 10606 10606 10604 10601 10600 10597 10593 10591 10591 10589 10587 10583 10579 10576 10574 10570 10567 10566 10564 10558 10551 10545 10537 10532 10535 10538 10537 10534 10530 10525 10521 10519 10518 10515 10513 10509 10506 10504 10501 10499
10574 10578 10581 10583 10585 10588 10590 10593 10595 10598 10601 10603 10605 10607 10609 10611 10613 10615 10616 10618 10619 10620 10622 10623 10624 10625 10625 10626 10626 10626 10626 10625 10625 10624 10623 10622 10621 10620 10619 10617 10616 10614 10612 10611 10608 10606 10604 10601 10600 10599 10597 10596 10594 10591 10587 10584 10583 10581 10580 10578 10573 10569 10564 10560 10559 10559 10556 10551 10545 10538 10529 10523 10525 10528 10527 10523 10518 10514 10511 10509 10508 10505 10502 10498 10495 10492 10489 10487
10574 10577 10579 10582 10584 10587 10589 10592 10595 10598 10600 10602 10604 10605 10607 10609 10611 10613 10614 10616 10617 10619 10620 10620 10621 10622 10622 10622 10622 10622 10622 10621 10621 10621 10619 10618 10617 10616 10614 10612 10611 10609 10607 10606 10603 10601 10598 10595 10593 10591 10590 10590 10588 10585 10581 10577 10575 10573 10571 10570 10567 10564 10558 10552 10552 10550 10547 10544 10538 10531 10522 10516 10518 10520 10517 10514 10509 10504 10501 10498 10496 10493 10490 10487 10483 10480 10477 10475
10573 10575 10578 10581 10583 10586 10588 10591 10594 10597 10599 10601 10602 10604 10606 10608 10610 10612 10613 10614 10616 10617 10618 10618 10618 10619 10619 10619 10619 10619 10618 10618 10618 10616 10615 10613 10612 10611 10609 10607 10605 10604 10602 10600 10596 10594 10592 10589 10587 10585 10583 10582 10580 10578 10576 10571 10567 10564 10561 10559 10557 10556 10552 10546 10543 10541 10537 10535 10531 10522 10514 10510 10512 10511 10507 10504 10501 10497 10493 10490 10486 10482 10478 10474 10470 10467 10465 10463
10571 10574 10577 10580 10582 10585 10588 10591 10593 10596 10598 10599 10601 10603 10605 10607 10609 10610 10611 10613 10614 10615 10615 10616 10616 10616 10616 10616 10616 10615 10614 10614 10614 10612 10610 10608 10607 10606 10604 10602 10600 10597 10595 10594 10591 10587 10586 10583 10581 10579 10577 10574 10570 10569 10568 10564 10560 10557 10554 10552 10548 10545 10544 10540 10535 10531 10527 10525 10522 10512 10504 10503 10504 10501 10497 10494 10491 10489 10486 10482 10477 10473 10468 10463 10459 10456 10453 10451
10570 10573 10576 10579 10581 10584 10587 10590 10592 10595 10597 10598 10599 10601 10604 10606 10607 10608 10610 10611 10612 10612 10613 10613 10613 10613 10613 10613 10612 10611 10611 10610 10609 10607 10605 10604 10602 10600 10599 10596 10594 10591 10589 10588 10586 10583 10580 10578 10574 10572 10570 10566 10562 10561 10559 10554 10550 10548 10546 10545 10541 10537 10534 10532 10527 10522 10519 10518 10514 10503 10493 10493 10494 10490 10486 10483 10482 10480 10477 10473 10468 10463 10458 10453 10449 10446 10443 10440
10569 10572 10575 10578 10581 10583 10586 10589 10591 10594 10595 10597 10598 10600 10602 10604 10605 10607 10608 10609 10609 10610 10610 10611 10611 10610 10610 10609 10608 10607 10606 10605 10604 10602 10600 10599 10597 10594 10593 10591 10589 10586 10584 10583 10580 10577 10574 10571 10568 10564 10561 10558 10554 10552 10549 10545 10541 10538 10536 10533 10531 10528 10525 10523 10519 10514 10511 10508 10503 10495 10486 10483 10482 10478 10475 10474 10473 10470 10466 10463 10458 10452 10447 10442 10438 10435 10432 10429
10569 10572 10575 10578 10580 10583 10586 10588 10591 10593 10594 10596 10597 10599 10600 10602 10603 10605 10606 10606 10607 10607 10608 10608 10608 10607 10606 10605 10604 10603 10602 10600 10599 10597 10595 10594 10592 10589 10587 10586 10583 10581 10579 10577 10575 10571 10567 10564 10561 10557 10553 10550 10547 10544 10540 10537 10532 10528 10525 10523 10520 10517 10513 10511 10508 10506 10505 10498 10490 10484 10476 10471 10469 10467 10466 10465 10462 10459 10455 10450 10445 10440 10435 10430 10427 10423 10420 10416
10569 10572 10575 10577 10580 10583 10585 10587 10589 10591 10592 10594 10596 10597 10599 10600 10601 10602 10603 10604 10604 10605 10605 10604 10604 10603 10602 10602 10600 10599 10598 10596 10594 10593 10590 10589 10587 10584 10582 10580 10578 10576 10573 10571 10568 10564 10561 10557 10553 10550 10546 10543 10539 10537 10533 10529 10524 10519 10516 10513 10510 10507 10503 10499 10495 10494 10495 10491 10483 10473 10461 10455 10456 10456 10456 10454 10450 10448 10443 10438 10431 10426 10422 10418 10414 10411 10407 10404
10569 10572 10574 10577 10579 10582 10584 10586 10588 10589 10591 10593 10594 10596 10597 10599 10600 10600 10601 10602 10602 10601 10601 10601 10601 10600 10599 10598 10596 10595 10594 10592 10590 10588 10586 10584 10582 10580 10578 10575 10572 10570 10568 10565 10561 10557 10553 10549 10545 10542 10538 10534 10531 10528 10524 10520 10516 10511 10508 10504 10499 10496 10492 10487 10483 10480 10479 10480 10478 10464 10447 10442 10445 10446 10444 10441 10438 10436 10431 10425 10419 10413 10410 10406 10402 10397 10394 10391
10569 10572 10574 10577 10579 10581 10583 10585 10586 10587 10589 10591 10592 10594 10595 10596 10597 10597 10598 10599 10598 10597 10597 10597 10597 10596 10595 10594 10592 10591 10590 10587 10585 10583 10581 10579 10576 10574 10573 10570 10566 10563 10561 10558 10554 10549 10545 10541 10537 10533 10529 10526 10522 10518 10514 10511 10507 10502 10498 10494 10489 10485 10480 10476 10470 10466 10462 10464 10466 10452 10434 10430 10430 10430 10430 10428 10425 10422 10418 10412 10406 10401 10397 10393 10388 10383 10379 10375
10569 10572 10574 10576 10578 10580 10582 10583 10585 10586 10588 10589 10591 10592 10593 10594 10594 10594 10595 10595 10594 10594 10594 10594 10593 10592 10591 10589 10587 10586 10584 10582 10581 10578 10575 10573 10571 10569 10567 10564 10560 10557 10553 10550 10546 10542 10537 10533 10528 10524 10521 10517 10513 10508 10504 10500 10497 10493 10489 10485 10480 10474 10469 10464 10458 10454 10449 10449 10450 10440 10426 10420 10414 10413 10413 10412 10410 10406 10403 10398 10392 10388 10384 10379 10373 10368 10363 10358
10569 10571 10574 10576 10578 10580 10581 10582 10583 10585 10586 10588 10589 10590 10591 10592 10592 10591 10592 10591 10590 10590 10591 10590 10589 10588 10586 10584 10583 10581 10579 10577 10575 10572 10570 10567 10564 10562 10560 10557 10554 10551 10547 10543 10539 10534 10529 10524 10519 10515 10511 10507 10503 10498 10494 10490 10487 10483 10479 10475 10471 10464 10459 10454 10447 10442 10438 10435 10432 10424 10417 10409 10401 10400 10398 10393 10392 10388 10384 10381 10377 10373 10369 10363 10357 10351 10346 10341
10569 10571 10573 10576 10577 10579 10580 10581 10582 10583 10584 10586 10587 10588 10588 10589 10589 10589 10588 10588 10587 10587 10586 10586 10584 10583 10581 10580 10578 10576 10575 10573 10570 10567 10564 10561 10559 10556 10553 10550 10546 10543 10540 10535 10531 10526 10520 10516 10511 10507 10503 10498 10494 10488 10484 10480 10477 10472 10468 10465 10461 10453 10446 10441 10435 10429 10425 10422 10416 10407 10401 10393 10386 10387 10384 10377 10373 10369 10365 10362 10358 10354 10349 10344 10339 10334 10329 10324
10569 10571 10573 10574 10576 10577 10578 10579 10581 10582 10583 10584 10585 10585 10586 10586 10586 10586 10586 10585 10584 10583 10582 10581 10580 10578 10576 10575 10573 10571 10570 10568 10565 10562 10557 10555 10553 10550 10546 10542 10539 10536 10532 10527 10523 10518 10512 10507 10502 10498 10495 10490 10485 10479 10473 10469 10465 10461 10456 10453 10450 10444 10437 10430 10423 10416 10412 10410 10403 10393 10386 10377 10371 10371 10368 10361 10356 10351 10347 10343 10338 10334 10329 10324 10321 10317 10312 10307
10568 10570 10571 10572 10574 10575 10576 10578 10579 10580 10581 10581 10582 10583 10583 10583 10583 10583 10582 10581 10581 10579 10577 10576 10575 10574 10572 10570 10569 10567 10565 10563 10560 10557 10552 10548 10546 10543 10539 10535 10531 10527 10523 10518 10513 10509 10503 10498 10493 10488 10485 10481 10476 10471 10464 10458 10453 10449 10444 10439 10435 10431 10427 10422 10413 10405 10400 10398 10393 10384 10373 10364 10361 10358 10352 10345 10339 10333 10327 10322 10317 10312 10307 10303 10300 10296 10293 10288
10567 10568 10570 10571 10572 10573 10574 10576 10577 10578 10578 10579 10580 10580 10580 10580 10580 10580 10579 10578 10577 10575 10574 10573 10571 10569 10568 10566 10564 10562 10560 10557 10555 10552 10547 10543 10539 10535 10532 10528 10524 10520 10516 10511 10506 10501 10495 10489 10484 10480 10476 10471 10468 10463 10456 10449 10443 10438 10433 10427 10420 10414 10410 10409 10404 10396 10391 10388 10386 10377 10363 10354 10351 10347 10342 10335 10328 10320 10312 10305 10299 10294 10288 10283 10279 10274 10270 10267
10565 10567 10568 10569 10570 10571 10572 10573 10574 10575 10576 10577 10577 10577 10577 10577 10577 10576 10575 10574 10573 10571 10570 10569 10567 10565 10563 10561 10559 10556 10555 10552 10548 10545 10542 10538 10533 10528 10524 10520 10516 10512 10509 10505 10500 10496 10489 10482 10476 10471 10466 10462 10458 10453 10447 10440 10434 10429 10422 10415 10408 10400 10393 10390 10387 10382 10376 10375 10377 10369 10356 10346 10338 10332 10329 10323 10315 10307 10300 10293 10287 10280 10274 10267 10261 10257 10252 10248
10565 10566 10567 10568 10569 10570 10571 10571 10572 10574 10574 10575 10575 10575 10574 10574 10573 10573 10572 10570 10569 10568 10566 10564 10562 10560 10557 10556 10554 10550 10549 10546 10541 10537 10534 10531 10527 10522 10518 10513 10508 10503 10500 10497 10492 10487 10481 10473 10467 10462 10455 10451 10448 10442 10436 10430 10423 10417 10411 10402 10393 10385 10377 10370 10366 10362 10353 10351 10358 10354 10343 10336 10326 10318 10313 10305 10297 10292 10284 10279 10273 10266 10259 10252 10245 10241 10236 10232
10564 10565 10566 10567 10568 10569 10569 10570 10571 10572 10572 10572 10572 10572 10571 10570 10570 10569 10568 10566 10565 10563 10561 10559 10558 10555 10552 10550 10548 10545 10542 10540 10536 10530 10526 10523 10519 10515 10511 10506 10501 10496 10491 10487 10483 10479 10473 10464 10456 10451 10444 10438 10435 10430 10424 10419 10413 10405 10398 10390 10381 10371 10362 10353 10348 10347 10336 10329 10337 10337 10326 10320 10311 10302 10297 10288 10280 10276 10268 10262 10256 10248 10242 10236 10230 10224 10219 10214
10564 10565 10565 10566 10567 10568 10568 10569 10569 10570 10570 10569 10569 10568 10568 10567 10566 10565 10564 10563 10561 10558 10557 10555 10553 10551 10548 10544 10542 10538 10535 10532 10529 10525 10520 10516 10512 10507 10504 10499 10494 10488 10483 10478 10474 10471 10468 10459 10449 10441 10434 10428 10423 10418 10412 10407 10403 10396 10387 10380 10372 10363 10353 10342 10332 10330 10324 10315 10320 10321 10313 10306 10296 10283 10277 10270 10264 10260 10254 10245 10238 10232 10227 10220 10214 10209 10203 10197
10563 10564 10564 10565 10565 10566 10566 10567 10567 10567 10566 10566 10566 10565 10564 10563 10562 10561 10559 10558 10556 10554 10552 10550 10547 10545 10542 10539 10535 10532 10529 10525 10522 10518 10514 10510 10505 10500 10496 10492 10487 10481 10475 10469 10463 10459 10458 10453 10443 10433 10426 10419 10412 10406 10401 10396 10392 10386 10378 10369 10361 10351 10343 10335 10323 10313 10306 10301 10303 10304 10302 10298 10286 10268 10255 10249 10245 10241 10235 10228 10221 10216 10210 10202 10196 10190 10184 10178
10561 10562 10563 10563 10563 10564 10564 10564 10564 10564 10563 10563 10562 10561 10561 10560 10558 10556 10555 10553 10551 10550 10548 10545 10542 10539 10536 10533 10529 10526 10522 10518 10515 10511 10507 10503 10498 10492 10487 10482 10477 10472 10466 10459 10454 10448 10445 10443 10436 10424 10416 10409 10402 10395 10389 10384 10378 10373 10365 10355 10345 10335 10327 10322 10315 10302 10290 10284 10282 10282 10285 10287 10277 10258 10242 10232 10226 10221 10214 10210 10205 10198 10191 10183 10176 10171 10165 10158
10560 10561 10561 10561 10561 10561 10562 10562 10561 10561 10560 10559 10559 10558 10557 10555 10554 10552 10551 10549 10547 10545 10543 10540 10537 10534 10531 10528 10524 10520 10516 10512 10508 10504 10500 10495 10491 10485 10479 10473 10467 10462 10457 10450 10444 10438 10433 10430 10425 10416 10405 10397 10389 10382 10375 10369 10364 10358 10351 10342 10333 10323 10313 10305 10303 10295 10279 10271 10264 10258 10263 10272 10261 10243 10231 10222 10210 10202 10197 10194 10189 10180 10172 10164 10158 10152 10145 10139
10558 10559 10559 10559 10559 10559 10559 10559 10558 10557 10556 10555 10555 10554 10552 10551 10550 10548 10546 10545 10542 10540 10537 10535 10532 10529 10525 10522 10518 10515 10510 10506 10502 10497 10493 10488 10482 10477 10471 10465 10459 10452 10447 10441 10434 10428 10423 10418 10412 10405 10397 10388 10378 10370 10362 10356 10351 10345 10338 10330 10320 10312 10302 10292 10289 10287 10276 10266 10254 10239 10241 10251 10242 10225 10217 10208 10194 10185 10181 10176 10168 10160 10153 10146 10140 10133 10125 10120
10556 10556 10556 10556 10556 10556 10556 10555 10554 10553 10552 10552 10551 10550 10549 10547 10546 10544 10542 10539 10537 10535 10532 10529 10526 10523 10520 10516 10513 10509 10504 10500 10495 10490 10485 10480 10474 10469 10463 10457 10451 10444 10438 10432 10425 10418 10413 10408 10402 10394 10386 10378 10369 10362 10354 10346 10339 10331 10324 10316 10306 10298 10288 10276 10269 10267 10265 10261 10248 10231 10227 10228 10219 10206 10198 10188 10177 10170 10164 10155 10147 10141 10135 10128 10121 10115 10109 10103
10554 10554 10554 10553 10553 10553 10552 10551 10551 10550 10549 10548 10547 10546 10545 10543 10541 10539 10537 10535 10532 10530 10527 10524 10521 10518 10514 10511 10507 10503 10498 10493 10487 10482 10476 10471 10466 10460 10454 10448 10442 10435 10429 10422 10415 10408 10401 10396 10392 10386 10377 10367 10357 10348 10343 10337 10327 10317 10310 10304 10295 10286 10275 10265 10256 10248 10247 10247 10237 10223 10216 10211 10201 10190 10180 10169 10161 10155 10146 10136 10127 10121 10115 10108 10100 10094 10089 10085
10552 10552 10551 10551 10551 10550 10549 10548 10548 10547 10546 10545 10543 10542 10540 10539 10536 10534 10532 10530 10527 10525 10522 10519 10516 10513 10509 10505 10501 10496 10491 10486 10480 10474 10468 10463 10457 10451 10445 10438 10432 10426 10419 10412 10405 10397 10389 10382 10377 10373 10368 10360 10350 10340 10334 10329 10320 10308 10298 10293 10287 10279 10267 10256 10248 10237 10232 10230 10222 10208 10200 10197 10189 10176 10165 10155 10146 10140 10130 10118 10108 10101 10095 10088 10081 10075 10071 10067
10550 10549 10549 10549 10548 10547 10546 10545 10545 10543 10542 10541 10539 10538 10536 10534 10532 10530 10528 10525 10522 10520 10517 10514 10510 10507 10503 10499 10494 10489 10484 10479 10473 10468 10461 10455 10449 10442 10436 10429 10422 10416 10410 10402 10395 10387 10379 10371 10363 10357 10352 10346 10340 10333 10326 10321 10315 10305 10293 10283 10276 10269 10258 10245 10236 10226 10217 10213 10210 10195 10181 10183 10180 10162 10149 10143 10134 10126 10118 10106 10095 10087 10079 10072 10065 10062 10058 10052
10548 10547 10547 10546 10545 10545 10543 10542 10541 10540 10538 10537 10535 10534 10532 10530 10528 10525 10523 10520 10517 10514 10511 10508 10504 10501 10496 10492 10487 10482 10477 10472 10466 10460 10454 10447 10441 10433 10427 10420 10413 10406 10400 10392 10385 10378 10370 10361 10353 10345 10337 10327 10322 10318 10311 10303 10298 10291 10282 10272 10262 10253 10244 10233 10222 10214 10204 10196 10196 10186 10169 10168 10167 10150 10138 10133 10123 10114 10106 10095 10084 10076 10067 10059 10054 10050 10046 10038
10545 10545 10544 10544 10543 10541 10540 10539 10537 10536 10534 10533 10531 10529 10528 10526 10523 10521 10518 10515 10513 10509 10506 10502 10498 10494 10490 10485 10480 10474 10469 10463 10458 10452 10446 10439 10433 10425 10418 10411 10403 10395 10389 10381 10374 10367 10360 10352 10344 10336 10326 10314 10307 10304 10298 10289 10281 10273 10265 10257 10249 10239 10231 10222 10210 10200 10189 10178 10175 10173 10163 10155 10147 10134 10126 10120 10108 10101 10094 10083 10072 10063 10054 10048 10044 10040 10034 10026
10543 10543 10542 10541 10540 10538 10537 10535 10534 10532 10531 10529 10527 10525 10523 10521 10519 10516 10514 10511 10507 10504 10500 10496 10492 10488 10483 10478 10473 10467 10461 10455 10449 10443 10437 10430 10423 10417 10409 10402 10394 10385 10378 10371 10363 10355 10349 10342 10336 10330 10319 10305 10297 10293 10286 10277 10270 10260 10250 10242 10235 10226 10217 10209 10198 10185 10175 10164 10157 10156 10152 10142 10128 10117 10114 10104 10092 10085 10078 10067 10058 10049 10042 10038 10033 10027 10020 10013
10541 10540 10539 10538 10536 10535 10533 10531 10530 10529 10527 10525 10524 10521 10519 10517 10514 10512 10509 10505 10502 10498 10494 10490 10486 10481 10476 10471 10466 10460 10454 10448 10441 10434 10427 10420 10413 10407 10399 10392 10385 10377 10369 10362 10355 10347 10340 10333 10327 10323 10315 10299 10288 10284 10276 10267 10260 10252 10241 10231 10223 10214 10205 10196 10185 10172 10161 10153 10146 10141 10136 10127 10112 10101 10097 10089 10078 10070 10061 10050 10041 10033 10027 10025 10020 10012 10005 10000
10538 10537 10535 10534 10533 10531 10530 10528 10527 10525 10523 10521 10520 10517 10515 10512 10509 10506 10503 10500 10496 10492 10488 10484 10479 10474 10469 10463 10458 10452 10446 10440 10433 10426 10419 10412 10404 10397 10390 10383 10375 10368 10361 10353 10345 10337 10330 10323 10315 10312 10307 10293 10281 10276 10269 10259 10251 10243 10233 10222 10213 10205 10197 10186 10172 10159 10148 10141 10135 10128 10121 10114 10103 10090 10082 10074 10066 10056 10046 10034 10025 10017 10012 10009 10004 9997 9991 9985
10534 10533 10532 10531 10529 10528 10526 10525 10523 10522 10520 10518 10516 10513 10510 10507 10504 10501 10498 10494 10491 10486 10482 10477 10472 10467 10462 10456 10450 10444 10437 10431 10424 10417 10411 10404 10396 10388 10381 10374 10365 10358 10351 10342 10334 10325 10317 10310 10302 10298 10295 10286 10273 10268 10262 10253 10245 10235 10224 10214 10206 10198 10191 10179 10162 10146 10136 10130 10126 10118 10108 10101 10093 10083 10073 10064 10054 10043 10032 10021 10011 10005 10001 9994 9987 9982 9977 9972
10531 10529 10528 10527 10526 10525 10523 10521 10520 10518 10516 10514 10511 10508 10505 10502 10499 10496 10492 10489 10485 10481 10476 10471 10465 10460 10454 10448 10442 10436 10429 10423 10416 10409 10402 10395 10387 10379 10371 10364 10355 10347 10339 10330 10322 10314 10305 10298 10290 10284 10282 10276 10265 10258 10252 10242 10236 10229 10217 10206 10198 10191 10183 10172 10155 10135 10123 10118 10113 10105 10095 10087 10080 10072 10064 10057 10046 10035 10023 10010 10001 9996 9992 9985 9976 9968 9964 9960